Home   Weather   Savannah   Past weeks

Flag for USA Past Weather in Savannah, Georgia, USA — Yesterday and Last 2 Weeks

Now
78 °F

Sunny.


Feels Like: 80 °F
Forecast: 65 / 84 °F
Wind: 5 mph from Northeast

Location: Hunter U. S. Army Airfield

Current Time: Oct 1, 2016 at 11:33:32 AM

Latest Report: Oct 1, 2016 at 10:58 AM


Visibility: 10 mi

Pressure: 30.07 "Hg

Humidity: 58%

Dew Point: 62 °F

Location of SavannahLocation

Past Weather in Savannah — Graph

°F

Savannah Temperature Yesterday

Maximum temperature yesterday: 87 °F (at 3:58 PM)
Minimum temperature yesterday: 63 °F (at 7:58 AM)
Average temperature yesterday: 76 °F

High & Low Weather Summary for the Past Weeks

 TemperatureHumidityPressure
High91 °F (Sep 18, 3:58 PM)100% (Sep 16, 9:58 AM)30.14 "Hg (Sep 16, 9:58 AM)
Low63 °F (Sep 30, 7:58 AM)52% (Sep 30, 3:58 PM)29.86 "Hg (Sep 27, 5:58 PM)
Average78 °F90%29.98 "Hg
* Reported Sep 16 9:58 AM — Oct 1 9:58 AM, Savannah, Weather by CustomWeather, © 2016

Note: Actual official high and low records may vary slightly from our data, if they occured in-between our weather recording intervals... More about our weather records

Advertising

Savannah Weather History for the Previous 24 Hours

Scroll right to see more
 ConditionsComfort  
Time TempWeatherWind HumidityBarometerVisibility
9:58 AM
Sat, Oct 1
72 °FPartly sunny.5 mph66%30.08 "Hg10 mi
8:58 AM67 °FOvercast.6 mph72%30.06 "Hg10 mi
7:58 AM66 °FScattered clouds.7 mph72%30.05 "Hg10 mi
6:58 AM67 °FMostly cloudy.6 mph72%30.04 "Hg10 mi
5:58 AM67 °FPassing clouds.5 mph74%30.02 "Hg10 mi
4:58 AM66 °FPassing clouds.6 mph76%30.01 "Hg10 mi
3:58 AM65 °FClear.6 mph84%29.99 "Hg10 mi
2:58 AM65 °FClear.2 mph86%30.00 "Hg10 mi
1:58 AM65 °FClear.3 mph89%30.01 "Hg10 mi
12:58 AM64 °FClear.2 mph99%30.02 "Hg10 mi
11:58 PM
Fri, Sep 30
64 °FClear.5 mph96%30.03 "Hg10 mi
10:58 PM69 °FClear.No wind86%30.02 "Hg10 mi
9:58 PM69 °FClear.5 mph89%30.01 "Hg10 mi
8:58 PM71 °FClear.2 mph90%30.00 "Hg10 mi
7:58 PM76 °FClear.3 mph81%29.97 "Hg10 mi
6:58 PM80 °FSunny.6 mph71%29.96 "Hg10 mi
5:58 PM85 °FSunny.9 mph53%29.95 "Hg10 mi
4:58 PM87 °FSunny.10 mph52%29.94 "Hg10 mi
3:58 PM87 °FSunny.6 mph52%29.95 "Hg10 mi
2:58 PM86 °FSunny.8 mph53%29.97 "Hg10 mi
1:58 PM85 °FSunny.5 mph53%29.99 "Hg10 mi
12:58 PM84 °FSunny.7 mph56%30.01 "Hg10 mi
11:58 AM81 °FSunny.3 mph62%30.02 "Hg10 mi
Weather by CustomWeather, © 2016

See weather overviewHow to use our weather pages